TimeCDT,TemperatureF,Dew PointF,Humidity,Sea Level PressureIn,VisibilityMPH,Wind Direction,Wind SpeedMPH,Gust SpeedMPH,PrecipitationIn,Events,Conditions,WindDirDegrees,DateUTC
12:15 AM,35.6,26.6,70,29.74,10.0,WSW,8.1,-,N/A,,Clear,240,2013-10-27 05:15:00
12:35 AM,35.6,26.6,70,29.74,10.0,West,9.2,-,N/A,,Clear,260,2013-10-27 05:35:00
12:55 AM,37.4,28.4,70,29.72,10.0,West,9.2,-,N/A,,Clear,270,2013-10-27 05:55:00
1:15 AM,39.2,28.4,65,29.72,10.0,West,12.7,-,N/A,,Clear,270,2013-10-27 06:15:00
1:35 AM,39.2,28.4,65,29.72,10.0,West,13.8,-,N/A,,Mostly Cloudy,280,2013-10-27 06:35:00
1:55 AM,39.2,28.4,65,29.71,10.0,WNW,10.4,-,N/A,,Overcast,290,2013-10-27 06:55:00
2:15 AM,37.4,28.4,70,29.71,10.0,West,10.4,-,N/A,,Mostly Cloudy,280,2013-10-27 07:15:00
2:35 AM,37.4,28.4,70,29.71,10.0,WNW,10.4,-,N/A,,Scattered Clouds,290,2013-10-27 07:35:00
2:55 AM,39.2,28.4,65,29.72,10.0,WNW,12.7,-,N/A,,Partly Cloudy,290,2013-10-27 07:55:00
3:15 AM,37.4,28.4,70,29.72,10.0,WNW,10.4,-,N/A,,Partly Cloudy,290,2013-10-27 08:15:00
3:35 AM,37.4,28.4,70,29.72,10.0,WNW,10.4,-,N/A,,Mostly Cloudy,290,2013-10-27 08:35:00
3:55 AM,37.4,30.2,75,29.72,10.0,NW,4.6,-,N/A,,Mostly Cloudy,310,2013-10-27 08:55:00
4:15 AM,37.4,30.2,75,29.73,10.0,NW,6.9,-,N/A,,Mostly Cloudy,320,2013-10-27 09:15:00
4:35 AM,37.4,30.2,75,29.74,10.0,NW,9.2,-,N/A,,Overcast,310,2013-10-27 09:35:00
4:55 AM,37.4,30.2,75,29.75,10.0,WNW,9.2,-,N/A,,Mostly Cloudy,300,2013-10-27 09:55:00
5:15 AM,37.4,30.2,75,29.76,10.0,NW,8.1,-,N/A,,Mostly Cloudy,320,2013-10-27 10:15:00
5:35 AM,37.4,30.2,75,29.79,10.0,North,13.8,19.6,N/A,,Mostly Cloudy,360,2013-10-27 10:35:00
5:55 AM,37.4,28.4,70,29.80,10.0,North,10.4,-,N/A,,Mostly Cloudy,350,2013-10-27 10:55:00
6:15 AM,35.6,28.4,75,29.81,10.0,North,10.4,-,N/A,,Scattered Clouds,350,2013-10-27 11:15:00
6:35 AM,33.8,28.4,81,29.82,10.0,North,8.1,-,N/A,,Partly Cloudy,350,2013-10-27 11:35:00
6:55 AM,32.0,28.4,87,29.83,10.0,North,9.2,-,N/A,,Clear,360,2013-10-27 11:55:00
7:15 AM,33.8,28.4,81,29.85,10.0,North,10.4,-,N/A,,Clear,360,2013-10-27 12:15:00
7:35 AM,32.0,26.6,80,29.87,10.0,North,9.2,-,N/A,,Clear,10,2013-10-27 12:35:00
7:55 AM,33.8,26.6,75,29.88,10.0,North,13.8,18.4,N/A,,Clear,10,2013-10-27 12:55:00
8:15 AM,35.6,28.4,75,29.89,10.0,NNE,13.8,20.7,N/A,,Clear,20,2013-10-27 13:15:00
8:35 AM,35.6,28.4,75,29.90,10.0,NNE,17.3,25.3,N/A,,Clear,20,2013-10-27 13:35:00
8:55 AM,35.6,28.4,75,29.92,10.0,NNE,19.6,25.3,N/A,,Scattered Clouds,20,2013-10-27 13:55:00
9:15 AM,35.6,28.4,75,29.93,10.0,NNE,19.6,29.9,N/A,,Partly Cloudy,20,2013-10-27 14:15:00
9:35 AM,35.6,28.4,75,29.95,10.0,NNE,18.4,28.8,N/A,,Mostly Cloudy,20,2013-10-27 14:35:00
9:55 AM,37.4,28.4,70,29.97,10.0,NNE,21.9,27.6,N/A,,Overcast,20,2013-10-27 14:55:00
10:15 AM,37.4,28.4,70,29.96,10.0,NNE,25.3,31.1,N/A,,Overcast,30,2013-10-27 15:15:00
10:35 AM,37.4,28.4,70,29.98,10.0,NNE,25.3,28.8,N/A,,Mostly Cloudy,20,2013-10-27 15:35:00
10:55 AM,37.4,28.4,70,29.99,10.0,NNE,17.3,27.6,N/A,,Overcast,30,2013-10-27 15:55:00
11:15 AM,37.4,28.4,70,30.00,10.0,NE,20.7,27.6,N/A,,Mostly Cloudy,40,2013-10-27 16:15:00
11:35 AM,39.2,26.6,61,30.02,10.0,NNE,23.0,28.8,N/A,,Scattered Clouds,30,2013-10-27 16:35:00
11:55 AM,39.2,26.6,61,30.04,10.0,NNE,18.4,27.6,N/A,,Mostly Cloudy,20,2013-10-27 16:55:00
12:15 PM,41.0,28.4,61,30.04,10.0,North,20.7,28.8,N/A,,Overcast,10,2013-10-27 17:15:00
12:35 PM,39.2,26.6,61,30.04,10.0,NNE,20.7,29.9,N/A,,Overcast,20,2013-10-27 17:35:00
12:55 PM,37.4,26.6,65,30.05,10.0,NNE,19.6,24.2,N/A,,Overcast,20,2013-10-27 17:55:00
1:15 PM,37.4,24.8,60,30.06,10.0,NNE,20.7,31.1,N/A,,Overcast,20,2013-10-27 18:15:00
1:35 PM,37.4,24.8,60,30.08,10.0,NNE,19.6,28.8,N/A,,Overcast,20,2013-10-27 18:35:00
1:55 PM,37.4,23.0,56,30.09,10.0,NNE,23.0,28.8,N/A,,Overcast,30,2013-10-27 18:55:00
2:15 PM,37.4,23.0,56,30.10,10.0,NNE,21.9,26.5,N/A,,Overcast,30,2013-10-27 19:15:00
2:35 PM,37.4,23.0,56,30.11,10.0,NNE,19.6,24.2,N/A,,Overcast,20,2013-10-27 19:35:00
2:55 PM,33.8,26.6,75,30.12,10.0,NNE,25.3,34.5,N/A,,Overcast,20,2013-10-27 19:55:00
3:15 PM,32.0,26.6,80,30.14,10.0,NNE,24.2,34.5,N/A,,Overcast,20,2013-10-27 20:15:00
3:35 PM,32.0,24.8,75,30.15,10.0,NNE,26.5,34.5,N/A,,Overcast,20,2013-10-27 20:35:00
3:55 PM,32.0,23.0,69,30.16,10.0,NNE,24.2,33.4,N/A,,Overcast,30,2013-10-27 20:55:00
4:15 PM,32.0,23.0,69,30.18,10.0,NNE,25.3,33.4,N/A,,Overcast,20,2013-10-27 21:15:00
4:35 PM,30.2,21.2,69,30.20,10.0,NNE,24.2,33.4,N/A,,Overcast,30,2013-10-27 21:35:00
4:55 PM,28.4,21.2,74,30.21,10.0,NNE,19.6,31.1,N/A,,Mostly Cloudy,30,2013-10-27 21:55:00
5:15 PM,28.4,19.4,69,30.23,10.0,NNE,18.4,28.8,N/A,,Overcast,20,2013-10-27 22:15:00
5:35 PM,28.4,19.4,69,30.24,10.0,NNE,17.3,27.6,N/A,,Overcast,30,2013-10-27 22:35:00
5:55 PM,28.4,19.4,69,30.25,10.0,NNE,19.6,24.2,N/A,,Overcast,20,2013-10-27 22:55:00
6:15 PM,28.4,19.4,69,30.27,10.0,NNE,17.3,25.3,N/A,,Overcast,30,2013-10-27 23:15:00
6:35 PM,28.4,19.4,69,30.28,10.0,NNE,20.7,26.5,N/A,,Overcast,30,2013-10-27 23:35:00
6:55 PM,26.6,17.6,69,30.29,10.0,NNE,17.3,23.0,N/A,,Overcast,30,2013-10-27 23:55:00
7:15 PM,26.6,17.6,69,30.31,10.0,NNE,15.0,23.0,N/A,,Overcast,30,2013-10-28 00:15:00
7:35 PM,26.6,17.6,69,30.32,10.0,NE,15.0,25.3,N/A,,Overcast,40,2013-10-28 00:35:00
7:55 PM,24.8,15.8,69,30.33,10.0,NNE,17.3,20.7,N/A,,Scattered Clouds,30,2013-10-28 00:55:00
8:15 PM,24.8,15.8,69,30.34,10.0,NE,15.0,20.7,N/A,,Clear,40,2013-10-28 01:15:00
8:35 PM,24.8,15.8,69,30.35,10.0,NNE,12.7,-,N/A,,Clear,30,2013-10-28 01:35:00
8:55 PM,23.0,15.8,74,30.36,10.0,NNE,11.5,-,N/A,,Clear,30,2013-10-28 01:55:00
9:15 PM,23.0,15.8,74,30.37,10.0,NNE,11.5,16.1,N/A,,Clear,20,2013-10-28 02:15:00
9:35 PM,23.0,15.8,74,30.37,10.0,NNE,13.8,19.6,N/A,,Clear,30,2013-10-28 02:35:00
9:55 PM,23.0,15.8,74,30.38,10.0,NNE,11.5,-,N/A,,Clear,20,2013-10-28 02:55:00
10:15 PM,21.2,15.8,80,30.39,10.0,NNE,12.7,-,N/A,,Clear,30,2013-10-28 03:15:00
10:35 PM,21.2,15.8,80,30.40,10.0,NNE,11.5,17.3,N/A,,Clear,30,2013-10-28 03:35:00
10:55 PM,23.0,15.8,74,30.40,10.0,NNE,10.4,17.3,N/A,,Clear,30,2013-10-28 03:55:00
11:15 PM,23.0,15.8,74,30.41,10.0,NE,11.5,17.3,N/A,,Mostly Cloudy,40,2013-10-28 04:15:00
11:35 PM,24.8,15.8,69,30.42,10.0,NE,16.1,24.2,N/A,,Overcast,50,2013-10-28 04:35:00
11:55 PM,24.8,15.8,69,30.43,10.0,NE,13.8,24.2,N/A,,Overcast,50,2013-10-28 04:55:00